This is the latest recevied weather packets stored in our database for station/object AD8BV. If no packets are shown the sender has not sent any weather packets the latest 10 day(s).
| Time | Temp. | Humidity | Pressure | Rain* | Wind** | Luminosity | Snow |
|---|---|---|---|---|---|---|---|
| 1777829501 | 16.67° C | 47% | 1013.5 hPa | 0 mm | - | 704 W/m² | - |
| 1777829198 | 16.11° C | 46% | 1013.7 hPa | 0 mm | - | 758 W/m² | - |
| 1777828896 | 16.11° C | 47% | 1013.6 hPa | 0 mm | - | 561 W/m² | - |
| 1777828592 | 16.67° C | 52% | 1013.5 hPa | 0 mm | - | 705 W/m² | - |
| 1777828289 | 16.11° C | 51% | 1013.9 hPa | 0 mm | - | 757 W/m² | - |
| 1777827986 | 16.11° C | 48% | 1013.7 hPa | 0 mm | - | 378 W/m² | - |
| 1777827683 | 16.11° C | 49% | 1013.8 hPa | 0 mm | - | 758 W/m² | - |
| 1777827380 | 16.11° C | 48% | 1013.9 hPa | 0 mm | - | 764 W/m² | - |
| 1777827076 | 15.56° C | 48% | 1013.9 hPa | 0 mm | - | 718 W/m² | - |
| 1777826773 | 16.11° C | 48% | 1013.8 hPa | 0 mm | - | 738 W/m² | - |
| 1777826470 | 15.56° C | 47% | 1014 hPa | 0 mm | - | 712 W/m² | - |
| 1777826167 | 15.56° C | 48% | 1014.1 hPa | 0 mm | - | 705 W/m² | - |
| 1777825864 | 15.56° C | 49% | 1014.2 hPa | 0 mm | - | 720 W/m² | - |
| 1777825561 | 13.89° C | 54% | 1014.4 hPa | 0 mm | - | 497 W/m² | - |
| 1777825259 | 13.89° C | 53% | 1014.3 hPa | 0 mm | - | 381 W/m² | - |
| 1777824950 | 13.33° C | 53% | 1014.5 hPa | 0 mm | - | 347 W/m² | - |
| 1777824646 | 12.78° C | 53% | 1014.4 hPa | 0 mm | - | 262 W/m² | - |
| 1777824344 | 12.78° C | 53% | 1014.4 hPa | 0 mm | - | 237 W/m² | - |
| 1777824039 | 12.78° C | 53% | 1014.5 hPa | 0 mm | - | 215 W/m² | - |
| 1777823735 | 12.78° C | 55% | 1014.6 hPa | 0 mm | - | 240 W/m² | - |
| 1777823433 | 12.78° C | 53% | 1014.7 hPa | 0 mm | - | 288 W/m² | - |
| 1777823130 | 12.78° C | 55% | 1014.8 hPa | 0 mm | - | 330 W/m² | - |
| 1777822827 | 12.22° C | 55% | 1014.6 hPa | 0 mm | - | 334 W/m² | - |
| 1777822526 | 12.22° C | 54% | 1015 hPa | 0 mm | - | 288 W/m² | - |
| 1777822223 | 11.67° C | 54% | 1014.9 hPa | 0 mm | - | 360 W/m² | - |
* Rain latest hour (hover to see other rain measurements)
** Current wind speed in m/s (hover to see current wind gust speed)